PulseSat

PulseSat

GSAT0212

Last updated on Dec. 15, 2016, 12:17 a.m. UTC

1 41860U 16069B   16346.12035641  .00000086  00000-0  00000+0 0  9996
2 41860  54.5797 197.6393 0002842 113.5733 246.5521  1.72058250   392
UTC
Height (km)
Latitude
Longitude
Inclination
Orbital Period

Next 30 passes for location: Hong Kong

Rise time Rise Azimuth (degrees) Set time Set Azimuth (degrees) Duration Max altitude (degrees)

No matching passes for this satellites

PulseSat

PulseSat is the new satellites software and hardware trackering solution by Pulsely.
Satellite Two Line Element Set source: US Air Force Space Command

Download PulseSat for iOS
© 2017 Pulsely Limited